Time,TemperatureF,DewpointF,PressureIn,WindDirection,WindDirectionDegrees,WindSpeedMPH,WindSpeedGustMPH,Humidity,HourlyPrecipIn,Conditions,Clouds,dailyrainin,SoftwareType,DateUTC
2013-09-06 00:00:00,69.1,63.7,29.94,NE,46,0.0,0.0,83,0.00,,SKC,0.00,VWS V14.01,2013-09-06 05:00:00,
2013-09-06 00:03:00,69.1,63.7,29.94,NE,46,0.0,0.0,83,0.00,,SKC,0.00,VWS V14.01,2013-09-06 05:03:00,
2013-09-06 00:08:00,69.1,63.7,29.94,NE,46,0.0,1.0,83,0.00,,SKC,0.00,VWS V14.01,2013-09-06 05:08:00,
2013-09-06 00:13:00,69.2,63.8,29.94,NE,46,0.0,1.0,83,0.00,,SKC,0.00,VWS V14.01,2013-09-06 05:13:00,
2013-09-06 00:18:00,69.2,63.5,29.94,NE,46,0.0,1.0,82,0.00,,SKC,0.00,VWS V14.01,2013-09-06 05:18:00,
2013-09-06 00:23:00,68.8,63.1,29.94,NE,46,0.0,1.0,82,0.00,,SKC,0.00,VWS V14.01,2013-09-06 05:23:00,
2013-09-06 00:28:00,68.4,62.7,29.93,NE,46,0.0,1.0,82,0.00,,SKC,0.00,VWS V14.01,2013-09-06 05:28:00,
2013-09-06 00:30:00,69.8,63.0,29.95,NE,46,0.0,0.0,79,0.00,,SKC,0.00,VWS V14.01,2013-09-06 05:30:00,
2013-09-06 00:33:00,68.1,62.4,29.93,NE,46,0.0,0.0,82,0.00,,SKC,0.00,VWS V14.01,2013-09-06 05:33:00,
2013-09-06 00:39:00,67.9,62.2,29.94,NE,46,0.0,0.0,82,0.00,,SKC,0.00,VWS V14.01,2013-09-06 05:39:00,
2013-09-06 00:44:00,67.7,62.4,29.93,NE,46,0.0,0.0,83,0.00,,SKC,0.00,VWS V14.01,2013-09-06 05:44:00,
2013-09-06 00:49:00,67.6,62.6,29.93,NE,46,0.0,0.0,84,0.00,,SKC,0.00,VWS V14.01,2013-09-06 05:49:00,
2013-09-06 00:54:00,67.6,62.9,29.93,NE,46,0.0,0.0,85,0.00,,SKC,0.00,VWS V14.01,2013-09-06 05:54:00,
2013-09-06 00:59:00,67.6,62.9,29.93,NE,46,0.0,0.0,85,0.00,,SKC,0.00,VWS V14.01,2013-09-06 05:59:00,
2013-09-06 01:00:00,69.1,63.7,29.94,NE,46,0.0,0.0,83,0.00,,SKC,0.00,VWS V14.01,2013-09-06 06:00:00,
2013-09-06 01:04:00,67.6,62.9,29.93,NE,46,0.0,0.0,85,0.00,,SKC,0.00,VWS V14.01,2013-09-06 06:04:00,
2013-09-06 01:09:00,67.6,63.3,29.93,NE,46,0.0,0.0,86,0.00,,SKC,0.00,VWS V14.01,2013-09-06 06:09:00,
2013-09-06 01:14:00,67.7,63.7,29.93,NE,46,0.0,0.0,87,0.00,,SKC,0.00,VWS V14.01,2013-09-06 06:14:00,
2013-09-06 01:19:00,67.6,63.3,29.93,NE,46,0.0,0.0,86,0.00,,SKC,0.00,VWS V14.01,2013-09-06 06:19:00,
2013-09-06 01:24:00,67.4,63.1,29.93,NE,46,0.0,0.0,86,0.00,,SKC,0.00,VWS V14.01,2013-09-06 06:24:00,
2013-09-06 01:29:00,67.3,63.0,29.93,NE,46,0.0,0.0,86,0.00,,SKC,0.00,VWS V14.01,2013-09-06 06:29:00,
2013-09-06 01:30:00,68.3,62.6,29.93,NE,46,0.0,1.0,82,0.00,,SKC,0.00,VWS V14.01,2013-09-06 06:30:00,
2013-09-06 01:34:00,67.2,62.9,29.93,NE,46,0.0,0.0,86,0.00,,SKC,0.00,VWS V14.01,2013-09-06 06:34:00,
2013-09-06 01:39:00,67.1,63.1,29.93,NE,46,0.0,0.0,87,0.00,,SKC,0.00,VWS V14.01,2013-09-06 06:39:00,
2013-09-06 01:44:00,67.1,63.4,29.93,NE,46,0.0,0.0,88,0.00,,SKC,0.00,VWS V14.01,2013-09-06 06:44:00,
2013-09-06 01:49:00,67.2,63.8,29.93,NE,46,0.0,0.0,89,0.00,,SKC,0.00,VWS V14.01,2013-09-06 06:49:00,
2013-09-06 01:54:00,67.3,64.0,29.93,NE,46,0.0,0.0,89,0.00,,SKC,0.00,VWS V14.01,2013-09-06 06:54:00,
2013-09-06 01:59:00,67.4,64.4,29.92,NE,46,0.0,0.0,90,0.00,,SKC,0.00,VWS V14.01,2013-09-06 06:59:00,
2013-09-06 02:00:00,67.6,62.9,29.93,NE,46,0.0,0.0,85,0.00,,SKC,0.00,VWS V14.01,2013-09-06 07:00:00,
2013-09-06 02:04:00,67.4,64.4,29.92,NE,46,0.0,0.0,90,0.00,,SKC,0.00,VWS V14.01,2013-09-06 07:04:00,
2013-09-06 02:09:00,67.6,64.6,29.92,NE,46,0.0,0.0,90,0.00,,SKC,0.00,VWS V14.01,2013-09-06 07:09:00,
2013-09-06 02:14:00,67.7,64.7,29.92,NE,46,0.0,0.0,90,0.00,,SKC,0.00,VWS V14.01,2013-09-06 07:14:00,
2013-09-06 02:19:00,67.9,64.9,29.93,NE,47,0.0,2.0,90,0.00,,SKC,0.00,VWS V14.01,2013-09-06 07:19:00,
2013-09-06 02:25:00,67.9,64.9,29.92,NE,47,0.0,2.0,90,0.00,,SKC,0.00,VWS V14.01,2013-09-06 07:25:00,
2013-09-06 02:30:00,68.0,65.0,29.92,NE,47,0.0,2.0,90,0.00,,SKC,0.00,VWS V14.01,2013-09-06 07:30:00,
2013-09-06 02:35:00,68.0,65.0,29.92,NE,47,0.0,0.0,90,0.00,,SKC,0.00,VWS V14.01,2013-09-06 07:35:00,
2013-09-06 02:40:00,68.0,65.0,29.92,NE,47,0.0,1.0,90,0.00,,SKC,0.00,VWS V14.01,2013-09-06 07:40:00,
2013-09-06 02:45:00,67.9,64.9,29.93,NE,47,0.0,1.0,90,0.00,,SKC,0.00,VWS V14.01,2013-09-06 07:45:00,
2013-09-06 02:50:00,67.9,64.9,29.93,NE,47,0.0,1.0,90,0.00,,SKC,0.00,VWS V14.01,2013-09-06 07:50:00,
2013-09-06 02:55:00,67.9,64.9,29.93,NE,47,0.0,1.0,90,0.00,,SKC,0.00,VWS V14.01,2013-09-06 07:55:00,
2013-09-06 03:00:00,67.8,65.1,29.92,NE,47,0.0,1.0,91,0.00,,SKC,0.00,VWS V14.01,2013-09-06 08:00:00,
2013-09-06 03:05:00,67.7,65.0,29.93,NE,47,0.0,0.0,91,0.00,,SKC,0.00,VWS V14.01,2013-09-06 08:05:00,
2013-09-06 03:10:00,67.6,64.9,29.92,NE,47,0.0,1.0,91,0.00,,SKC,0.00,VWS V14.01,2013-09-06 08:10:00,
2013-09-06 03:15:00,67.6,64.9,29.92,NE,47,0.0,1.0,91,0.00,,SKC,0.00,VWS V14.01,2013-09-06 08:15:00,
2013-09-06 03:20:00,67.4,64.7,29.92,NE,47,0.0,1.0,91,0.00,,SKC,0.00,VWS V14.01,2013-09-06 08:20:00,
2013-09-06 03:25:00,67.2,64.5,29.92,NE,47,0.0,1.0,91,0.00,,SKC,0.00,VWS V14.01,2013-09-06 08:25:00,
2013-09-06 03:30:00,67.0,64.6,29.92,NE,47,0.0,1.0,92,0.00,,SKC,0.00,VWS V14.01,2013-09-06 08:30:00,
2013-09-06 03:35:00,67.1,64.7,29.92,NE,47,0.0,0.0,92,0.00,,SKC,0.00,VWS V14.01,2013-09-06 08:35:00,
2013-09-06 03:40:00,67.1,64.7,29.92,NE,47,0.0,0.0,92,0.00,,SKC,0.00,VWS V14.01,2013-09-06 08:40:00,
2013-09-06 03:45:00,67.1,64.7,29.92,NE,47,0.0,0.0,92,0.00,,SKC,0.00,VWS V14.01,2013-09-06 08:45:00,
2013-09-06 03:50:00,67.1,64.7,29.92,NE,47,0.0,0.0,92,0.00,,SKC,0.00,VWS V14.01,2013-09-06 08:50:00,
2013-09-06 03:55:00,67.1,64.7,29.92,NE,47,0.0,0.0,92,0.00,,SKC,0.00,VWS V14.01,2013-09-06 08:55:00,
2013-09-06 04:00:00,67.1,65.0,29.92,NE,47,0.0,0.0,93,0.00,,SKC,0.00,VWS V14.01,2013-09-06 09:00:00,
2013-09-06 04:05:00,67.1,64.7,29.91,NE,47,0.0,0.0,92,0.00,,SKC,0.00,VWS V14.01,2013-09-06 09:05:00,
2013-09-06 04:10:00,67.1,65.0,29.91,NE,47,0.0,0.0,93,0.00,,SKC,0.00,VWS V14.01,2013-09-06 09:10:00,
2013-09-06 04:15:00,67.1,65.0,29.91,NE,47,0.0,0.0,93,0.00,,SKC,0.00,VWS V14.01,2013-09-06 09:15:00,
2013-09-06 04:20:00,67.2,65.1,29.91,NE,47,0.0,0.0,93,0.00,,SKC,0.00,VWS V14.01,2013-09-06 09:20:00,
2013-09-06 04:25:00,67.2,65.1,29.91,NE,47,0.0,0.0,93,0.00,,SKC,0.00,VWS V14.01,2013-09-06 09:25:00,
2013-09-06 04:30:00,67.2,65.1,29.91,NE,47,0.0,0.0,93,0.00,,SKC,0.00,VWS V14.01,2013-09-06 09:30:00,
2013-09-06 04:35:00,67.2,65.1,29.91,NE,47,0.0,0.0,93,0.00,,SKC,0.00,VWS V14.01,2013-09-06 09:35:00,
2013-09-06 04:40:00,67.3,65.2,29.91,NE,47,0.0,0.0,93,0.00,,SKC,0.00,VWS V14.01,2013-09-06 09:40:00,
2013-09-06 04:45:00,67.3,65.5,29.91,NE,47,0.0,0.0,94,0.00,,SKC,0.00,VWS V14.01,2013-09-06 09:45:00,
2013-09-06 04:50:00,67.3,65.5,29.91,NE,47,0.0,0.0,94,0.00,,SKC,0.00,VWS V14.01,2013-09-06 09:50:00,
2013-09-06 04:55:00,67.2,65.1,29.91,NE,47,0.0,0.0,93,0.00,,SKC,0.00,VWS V14.01,2013-09-06 09:55:00,
2013-09-06 05:00:00,67.2,65.4,29.91,NE,47,0.0,0.0,94,0.00,,SKC,0.00,VWS V14.01,2013-09-06 10:00:00,
2013-09-06 05:05:00,67.2,65.1,29.91,NE,47,0.0,0.0,93,0.00,,SKC,0.00,VWS V14.01,2013-09-06 10:05:00,
2013-09-06 05:11:00,67.3,65.5,29.91,NE,47,0.0,0.0,94,0.00,,SKC,0.00,VWS V14.01,2013-09-06 10:11:00,
2013-09-06 05:16:00,67.4,65.6,29.91,NE,47,0.0,0.0,94,0.00,,SKC,0.00,VWS V14.01,2013-09-06 10:16:00,
2013-09-06 05:21:00,67.5,65.7,29.91,NE,47,0.0,0.0,94,0.00,,SKC,0.00,VWS V14.01,2013-09-06 10:21:00,
2013-09-06 05:26:00,67.6,65.8,29.90,NE,47,0.0,0.0,94,0.00,,SKC,0.00,VWS V14.01,2013-09-06 10:26:00,
2013-09-06 05:30:00,67.2,65.1,29.91,NE,47,0.0,0.0,93,0.00,,SKC,0.00,VWS V14.01,2013-09-06 10:30:00,
2013-09-06 05:31:00,67.5,65.7,29.90,NE,47,0.0,0.0,94,0.00,,SKC,0.00,VWS V14.01,2013-09-06 10:31:00,
2013-09-06 05:36:00,67.4,65.6,29.91,NE,47,0.0,0.0,94,0.00,,SKC,0.00,VWS V14.01,2013-09-06 10:36:00,
2013-09-06 05:41:00,67.3,65.5,29.90,NE,47,0.0,0.0,94,0.00,,SKC,0.00,VWS V14.01,2013-09-06 10:41:00,
2013-09-06 05:46:00,67.4,65.6,29.90,NE,47,0.0,0.0,94,0.00,,SKC,0.00,VWS V14.01,2013-09-06 10:46:00,
2013-09-06 05:51:00,67.5,65.7,29.90,NE,47,0.0,0.0,94,0.00,,SKC,0.00,VWS V14.01,2013-09-06 10:51:00,
2013-09-06 05:56:00,67.5,65.7,29.90,NE,47,0.0,0.0,94,0.00,,SKC,0.00,VWS V14.01,2013-09-06 10:56:00,
2013-09-06 06:00:00,67.2,65.4,29.91,NE,47,0.0,0.0,94,0.00,,SKC,0.00,VWS V14.01,2013-09-06 11:00:00,
2013-09-06 06:01:00,67.4,65.6,29.91,NE,47,0.0,0.0,94,0.00,,SKC,0.00,VWS V14.01,2013-09-06 11:01:00,
2013-09-06 06:06:00,67.4,65.6,29.90,NE,47,0.0,0.0,94,0.00,,SKC,0.00,VWS V14.01,2013-09-06 11:06:00,
2013-09-06 06:11:00,67.5,65.7,29.90,NE,47,0.0,0.0,94,0.00,,SKC,0.00,VWS V14.01,2013-09-06 11:11:00,
2013-09-06 06:16:00,67.6,65.8,29.90,NE,47,0.0,0.0,94,0.00,,SKC,0.00,VWS V14.01,2013-09-06 11:16:00,
2013-09-06 06:21:00,67.6,65.8,29.90,NE,47,0.0,0.0,94,0.00,,SKC,0.00,VWS V14.01,2013-09-06 11:21:00,
2013-09-06 06:26:00,67.7,65.9,29.90,NE,47,0.0,0.0,94,0.00,,SKC,0.00,VWS V14.01,2013-09-06 11:26:00,
2013-09-06 06:30:00,67.5,65.7,29.90,NE,47,0.0,0.0,94,0.00,,SKC,0.00,VWS V14.01,2013-09-06 11:30:00,
2013-09-06 06:31:00,67.9,66.1,29.89,NE,47,0.0,0.0,94,0.00,,SKC,0.00,VWS V14.01,2013-09-06 11:31:00,
2013-09-06 06:36:00,68.0,66.2,29.89,NE,47,0.0,0.0,94,0.00,,SKC,0.00,VWS V14.01,2013-09-06 11:36:00,
2013-09-06 06:41:00,68.1,66.6,29.89,NE,47,0.0,0.0,95,0.00,,SKC,0.00,VWS V14.01,2013-09-06 11:41:00,
2013-09-06 06:46:00,68.2,66.7,29.89,NE,47,0.0,0.0,95,0.00,,SKC,0.00,VWS V14.01,2013-09-06 11:46:00,
2013-09-06 06:51:00,68.3,66.8,29.89,NE,47,0.0,0.0,95,0.00,,SKC,0.00,VWS V14.01,2013-09-06 11:51:00,
2013-09-06 06:56:00,68.3,66.8,29.88,NE,47,0.0,0.0,95,0.00,,SKC,0.00,VWS V14.01,2013-09-06 11:56:00,
2013-09-06 07:00:00,67.4,65.6,29.90,NE,47,0.0,0.0,94,0.00,,SKC,0.00,VWS V14.01,2013-09-06 12:00:00,
2013-09-06 07:01:00,68.4,66.9,29.89,NE,47,0.0,0.0,95,0.00,,SKC,0.00,VWS V14.01,2013-09-06 12:01:00,
2013-09-06 07:06:00,68.4,66.9,29.89,NE,47,0.0,0.0,95,0.00,,SKC,0.00,VWS V14.01,2013-09-06 12:06:00,
2013-09-06 07:11:00,68.5,66.7,29.89,NE,47,0.0,0.0,94,0.00,,SKC,0.00,VWS V14.01,2013-09-06 12:11:00,
2013-09-06 07:16:00,68.5,66.7,29.88,NE,47,0.0,0.0,94,0.00,,SKC,0.00,VWS V14.01,2013-09-06 12:16:00,
2013-09-06 07:21:00,68.6,66.8,29.88,NE,47,0.0,2.0,94,0.00,,SKC,0.00,VWS V14.01,2013-09-06 12:21:00,
2013-09-06 07:26:00,68.6,66.8,29.88,NE,47,0.0,2.0,94,0.00,,SKC,0.00,VWS V14.01,2013-09-06 12:26:00,
2013-09-06 07:30:00,67.9,66.1,29.89,NE,47,0.0,0.0,94,0.00,,SKC,0.00,VWS V14.01,2013-09-06 12:30:00,
2013-09-06 07:31:00,68.8,67.3,29.88,NE,47,0.0,0.0,95,0.00,,SKC,0.00,VWS V14.01,2013-09-06 12:31:00,
2013-09-06 07:36:00,68.9,67.4,29.88,NE,47,0.0,0.0,95,0.00,,SKC,0.00,VWS V14.01,2013-09-06 12:36:00,
2013-09-06 07:41:00,69.1,67.3,29.88,NE,47,0.0,0.0,94,0.00,,SKC,0.00,VWS V14.01,2013-09-06 12:41:00,
2013-09-06 07:46:00,69.2,67.4,29.88,NE,47,0.0,0.0,94,0.00,,SKC,0.00,VWS V14.01,2013-09-06 12:46:00,
2013-09-06 07:51:00,69.3,67.5,29.88,NE,47,0.0,0.0,94,0.00,,SKC,0.00,VWS V14.01,2013-09-06 12:51:00,
2013-09-06 07:56:00,69.6,67.8,29.88,NE,47,0.0,0.0,94,0.00,,SKC,0.00,VWS V14.01,2013-09-06 12:56:00,
2013-09-06 08:00:00,68.4,66.9,29.88,NE,47,0.0,0.0,95,0.00,,SKC,0.00,VWS V14.01,2013-09-06 13:00:00,
2013-09-06 08:01:00,69.9,68.1,29.87,NE,47,0.0,0.0,94,0.00,,SKC,0.00,VWS V14.01,2013-09-06 13:01:00,
2013-09-06 08:06:00,70.4,68.6,29.87,NE,47,0.0,0.0,94,0.00,,SKC,0.00,VWS V14.01,2013-09-06 13:06:00,
2013-09-06 08:11:00,70.8,69.0,29.87,NE,47,0.0,0.0,94,0.00,,SKC,0.00,VWS V14.01,2013-09-06 13:11:00,
2013-09-06 08:17:00,71.2,69.1,29.86,NE,51,0.0,0.0,93,0.00,,SKC,0.00,VWS V14.01,2013-09-06 13:17:00,
2013-09-06 08:22:00,71.6,69.2,29.86,NE,49,0.0,0.0,92,0.00,,SKC,0.00,VWS V14.01,2013-09-06 13:22:00,
2013-09-06 08:27:00,72.1,69.3,29.86,NE,49,0.0,0.0,91,0.00,,SKC,0.00,VWS V14.01,2013-09-06 13:27:00,
2013-09-06 08:30:00,68.8,67.3,29.88,NE,47,0.0,2.0,95,0.00,,SKC,0.00,VWS V14.01,2013-09-06 13:30:00,
2013-09-06 08:32:00,72.4,69.3,29.86,NE,49,0.0,0.0,90,0.00,,SKC,0.00,VWS V14.01,2013-09-06 13:32:00,
2013-09-06 08:37:00,72.5,69.4,29.85,NE,49,0.0,0.0,90,0.00,,SKC,0.00,VWS V14.01,2013-09-06 13:37:00,
2013-09-06 08:42:00,72.8,69.7,29.85,NE,49,0.0,0.0,90,0.00,,SKC,0.00,VWS V14.01,2013-09-06 13:42:00,
2013-09-06 08:47:00,73.1,69.7,29.86,NE,49,0.0,0.0,89,0.00,,SKC,0.00,VWS V14.01,2013-09-06 13:47:00,
2013-09-06 08:52:00,73.5,69.7,29.85,NE,49,0.0,0.0,88,0.00,,SKC,0.00,VWS V14.01,2013-09-06 13:52:00,
2013-09-06 08:57:00,73.7,69.6,29.86,NE,48,0.0,1.0,87,0.00,,SKC,0.00,VWS V14.01,2013-09-06 13:57:00,
2013-09-06 09:00:00,69.8,68.0,29.87,NE,47,0.0,0.0,94,0.00,,SKC,0.00,VWS V14.01,2013-09-06 14:00:00,
2013-09-06 09:02:00,73.7,69.6,29.86,NE,47,0.0,0.0,87,0.00,,SKC,0.00,VWS V14.01,2013-09-06 14:02:00,
2013-09-06 09:07:00,73.8,69.7,29.86,NE,47,0.0,0.0,87,0.00,,SKC,0.00,VWS V14.01,2013-09-06 14:07:00,
2013-09-06 09:12:00,74.2,70.1,29.86,NE,47,0.0,0.0,87,0.00,,SKC,0.00,VWS V14.01,2013-09-06 14:12:00,
2013-09-06 09:17:00,74.5,70.0,29.86,NE,47,0.0,0.0,86,0.00,,SKC,0.00,VWS V14.01,2013-09-06 14:17:00,
2013-09-06 09:22:00,74.7,69.9,29.85,NE,47,0.0,0.0,85,0.00,,SKC,0.00,VWS V14.01,2013-09-06 14:22:00,
2013-09-06 09:27:00,74.9,70.1,29.85,NE,47,0.0,0.0,85,0.00,,SKC,0.00,VWS V14.01,2013-09-06 14:27:00,
2013-09-06 09:30:00,72.4,69.3,29.86,NE,49,0.0,0.0,90,0.00,,SKC,0.00,VWS V14.01,2013-09-06 14:30:00,
2013-09-06 09:32:00,74.9,69.7,29.85,NE,49,0.0,0.0,84,0.00,,SKC,0.00,VWS V14.01,2013-09-06 14:32:00,
2013-09-06 09:37:00,74.9,70.1,29.85,NE,49,0.0,0.0,85,0.00,,SKC,0.00,VWS V14.01,2013-09-06 14:37:00,
2013-09-06 09:42:00,75.1,69.9,29.85,NE,49,0.0,0.0,84,0.00,,SKC,0.00,VWS V14.01,2013-09-06 14:42:00,
2013-09-06 09:47:00,75.3,70.1,29.85,NE,49,0.0,0.0,84,0.00,,SKC,0.00,VWS V14.01,2013-09-06 14:47:00,
2013-09-06 09:52:00,75.8,70.3,29.84,NE,49,0.0,0.0,83,0.00,,SKC,0.00,VWS V14.01,2013-09-06 14:52:00,
2013-09-06 09:57:00,76.2,70.3,29.84,NE,49,0.0,0.0,82,0.00,,SKC,0.00,VWS V14.01,2013-09-06 14:57:00,
2013-09-06 10:00:00,73.7,69.6,29.86,NE,47,0.0,1.0,87,0.00,,SKC,0.00,VWS V14.01,2013-09-06 15:00:00,
2013-09-06 10:02:00,76.2,69.9,29.84,NE,48,0.0,0.0,81,0.00,,SKC,0.00,VWS V14.01,2013-09-06 15:02:00,
2013-09-06 10:07:00,76.3,69.7,29.84,NE,48,0.0,0.0,80,0.00,,SKC,0.00,VWS V14.01,2013-09-06 15:07:00,
2013-09-06 10:12:00,76.5,69.9,29.84,NE,47,0.0,0.0,80,0.00,,SKC,0.00,VWS V14.01,2013-09-06 15:12:00,
2013-09-06 10:17:00,77.1,70.1,29.84,East,84,0.0,10.0,79,0.00,,SKC,0.00,VWS V14.01,2013-09-06 15:17:00,
2013-09-06 10:22:00,77.9,70.9,29.84,East,81,0.0,10.0,79,0.00,,SKC,0.00,VWS V14.01,2013-09-06 15:22:00,
2013-09-06 10:27:00,78.6,70.8,29.84,East,80,0.0,10.0,77,0.00,,SKC,0.00,VWS V14.01,2013-09-06 15:27:00,
2013-09-06 10:30:00,74.9,69.7,29.85,NE,49,0.0,0.0,84,0.00,,SKC,0.00,VWS V14.01,2013-09-06 15:30:00,
2013-09-06 10:32:00,78.7,70.5,29.83,ENE,78,0.0,1.0,76,0.00,,SKC,0.00,VWS V14.01,2013-09-06 15:32:00,
2013-09-06 10:37:00,79.1,70.5,29.83,ENE,78,0.0,4.0,75,0.00,,SKC,0.00,VWS V14.01,2013-09-06 15:37:00,
2013-09-06 10:42:00,79.3,71.1,29.83,ENE,76,0.0,4.0,76,0.00,,SKC,0.00,VWS V14.01,2013-09-06 15:42:00,
2013-09-06 10:47:00,79.5,71.3,29.83,ENE,74,0.0,5.0,76,0.00,,SKC,0.00,VWS V14.01,2013-09-06 15:47:00,
2013-09-06 10:52:00,79.6,70.6,29.83,ENE,75,1.0,6.0,74,0.00,,SKC,0.00,VWS V14.01,2013-09-06 15:52:00,
2013-09-06 10:57:00,79.5,70.9,29.83,ENE,75,0.0,6.0,75,0.00,,SKC,0.00,VWS V14.01,2013-09-06 15:57:00,
2013-09-06 11:00:00,76.2,69.9,29.84,NE,48,0.0,0.0,81,0.00,,SKC,0.00,VWS V14.01,2013-09-06 16:00:00,
2013-09-06 11:02:00,79.5,70.5,29.83,ENE,76,2.0,6.0,74,0.00,,SKC,0.00,VWS V14.01,2013-09-06 16:02:00,
2013-09-06 11:07:00,79.8,69.2,29.83,East,82,0.0,6.0,70,0.00,,SKC,0.00,VWS V14.01,2013-09-06 16:07:00,
2013-09-06 11:12:00,80.3,68.8,29.82,East,86,0.0,7.0,68,0.00,,SKC,0.00,VWS V14.01,2013-09-06 16:12:00,
2013-09-06 11:17:00,80.8,69.3,29.82,East,90,4.0,7.0,68,0.00,,SKC,0.00,VWS V14.01,2013-09-06 16:17:00,
2013-09-06 11:23:00,81.2,68.3,29.82,SW,228,1.0,9.0,65,0.00,,SKC,0.00,VWS V14.01,2013-09-06 16:23:00,
2013-09-06 11:28:00,81.7,68.3,29.82,South,184,2.0,9.0,64,0.00,,SKC,0.00,VWS V14.01,2013-09-06 16:28:00,
2013-09-06 11:30:00,78.7,70.9,29.83,ENE,78,0.0,10.0,77,0.00,,SKC,0.00,VWS V14.01,2013-09-06 16:30:00,
2013-09-06 11:33:00,81.9,68.5,29.82,WSW,255,0.0,6.0,64,0.00,,SKC,0.00,VWS V14.01,2013-09-06 16:33:00,
2013-09-06 11:38:00,82.2,67.9,29.82,SW,217,6.0,8.0,62,0.00,,SKC,0.00,VWS V14.01,2013-09-06 16:38:00,
2013-09-06 11:43:00,82.4,67.1,29.82,SSW,209,4.0,8.0,60,0.00,,SKC,0.00,VWS V14.01,2013-09-06 16:43:00,
2013-09-06 11:48:00,82.8,67.0,29.81,SSW,213,2.0,10.0,59,0.00,,SKC,0.00,VWS V14.01,2013-09-06 16:48:00,
2013-09-06 11:53:00,83.0,67.2,29.81,SW,222,6.0,11.0,59,0.00,,SKC,0.00,VWS V14.01,2013-09-06 16:53:00,
2013-09-06 11:58:00,83.1,66.8,29.81,SW,228,2.0,11.0,58,0.00,,SKC,0.00,VWS V14.01,2013-09-06 16:58:00,
2013-09-06 12:00:00,79.4,70.8,29.83,ENE,75,0.0,6.0,75,0.00,,SKC,0.00,VWS V14.01,2013-09-06 17:00:00,
2013-09-06 12:03:00,82.9,67.1,29.81,SSW,206,1.0,8.0,59,0.00,,SKC,0.00,VWS V14.01,2013-09-06 17:03:00,
2013-09-06 12:08:00,83.0,67.7,29.80,SSW,213,0.0,8.0,60,0.00,,SKC,0.00,VWS V14.01,2013-09-06 17:08:00,
2013-09-06 12:13:00,83.4,67.6,29.80,SW,223,0.0,8.0,59,0.00,,SKC,0.00,VWS V14.01,2013-09-06 17:13:00,
2013-09-06 12:18:00,84.2,67.3,29.80,SW,223,0.0,8.0,57,0.00,,SKC,0.00,VWS V14.01,2013-09-06 17:18:00,
2013-09-06 12:23:00,84.5,67.1,29.79,SSW,211,2.0,8.0,56,0.00,,SKC,0.00,VWS V14.01,2013-09-06 17:23:00,
2013-09-06 12:28:00,84.5,67.1,29.79,SW,221,4.0,12.0,56,0.00,,SKC,0.00,VWS V14.01,2013-09-06 17:28:00,
2013-09-06 12:30:00,81.8,68.9,29.82,SW,214,5.0,9.0,65,0.00,,SKC,0.00,VWS V14.01,2013-09-06 17:30:00,
2013-09-06 12:33:00,84.5,67.1,29.79,SSW,206,4.0,6.0,56,0.00,,SKC,0.00,VWS V14.01,2013-09-06 17:33:00,
2013-09-06 12:38:00,84.2,66.3,29.79,SW,217,6.0,8.0,55,0.00,,SKC,0.00,VWS V14.01,2013-09-06 17:38:00,
2013-09-06 12:43:00,84.0,66.6,29.78,SW,216,1.0,9.0,56,0.00,,SKC,0.00,VWS V14.01,2013-09-06 17:43:00,
2013-09-06 12:48:00,84.6,67.2,29.78,WSW,239,2.0,9.0,56,0.00,,SKC,0.00,VWS V14.01,2013-09-06 17:48:00,
2013-09-06 12:53:00,85.0,67.0,29.78,SSW,213,1.0,10.0,55,0.00,,SKC,0.00,VWS V14.01,2013-09-06 17:53:00,
2013-09-06 12:58:00,85.3,67.3,29.78,SW,220,2.0,10.0,55,0.00,,SKC,0.00,VWS V14.01,2013-09-06 17:58:00,
2013-09-06 13:00:00,83.0,66.7,29.81,South,169,3.0,11.0,58,0.00,,SKC,0.00,VWS V14.01,2013-09-06 18:00:00,
2013-09-06 13:03:00,85.6,67.6,29.77,South,186,4.0,6.0,55,0.00,,SKC,0.00,VWS V14.01,2013-09-06 18:03:00,
2013-09-06 13:08:00,85.9,68.4,29.77,SSW,199,4.0,6.0,56,0.00,,SKC,0.00,VWS V14.01,2013-09-06 18:08:00,
2013-09-06 13:13:00,86.1,68.1,29.77,SW,233,6.0,6.0,55,0.00,,SKC,0.00,VWS V14.01,2013-09-06 18:13:00,
2013-09-06 13:18:00,86.2,67.6,29.77,SW,215,0.0,13.0,54,0.00,,SKC,0.00,VWS V14.01,2013-09-06 18:18:00,
2013-09-06 13:23:00,86.2,66.5,29.77,WSW,240,6.0,13.0,52,0.00,,SKC,0.00,VWS V14.01,2013-09-06 18:23:00,
2013-09-06 13:28:00,86.4,67.3,29.77,SW,218,6.0,13.0,53,0.00,,SKC,0.00,VWS V14.01,2013-09-06 18:28:00,
2013-09-06 13:30:00,84.4,66.5,29.79,SW,215,5.0,12.0,55,0.00,,SKC,0.00,VWS V14.01,2013-09-06 18:30:00,
2013-09-06 13:33:00,86.8,67.6,29.76,SSW,206,6.0,8.0,53,0.00,,SKC,0.00,VWS V14.01,2013-09-06 18:33:00,
2013-09-06 13:38:00,86.9,67.7,29.76,SSW,198,4.0,8.0,53,0.00,,SKC,0.00,VWS V14.01,2013-09-06 18:38:00,
2013-09-06 13:43:00,87.2,68.0,29.76,SSW,201,0.0,8.0,53,0.00,,SKC,0.00,VWS V14.01,2013-09-06 18:43:00,
2013-09-06 13:49:00,87.3,67.5,29.76,SSW,207,1.0,8.0,52,0.00,,SKC,0.00,VWS V14.01,2013-09-06 18:49:00,
2013-09-06 13:54:00,87.2,68.0,29.75,SW,227,0.0,8.0,53,0.00,,SKC,0.00,VWS V14.01,2013-09-06 18:54:00,
2013-09-06 13:59:00,87.5,67.7,29.75,SW,225,4.0,8.0,52,0.00,,SKC,0.00,VWS V14.01,2013-09-06 18:59:00,
2013-09-06 14:00:00,85.5,67.5,29.77,SW,221,1.0,10.0,55,0.00,,SKC,0.00,VWS V14.01,2013-09-06 19:00:00,
2013-09-06 14:04:00,87.6,68.4,29.75,SW,219,2.0,6.0,53,0.00,,SKC,0.00,VWS V14.01,2013-09-06 19:04:00,
2013-09-06 14:09:00,87.8,68.6,29.75,SW,218,1.0,6.0,53,0.00,,SKC,0.00,VWS V14.01,2013-09-06 19:09:00,
2013-09-06 14:14:00,88.3,68.5,29.74,SW,227,3.0,6.0,52,0.00,,SKC,0.00,VWS V14.01,2013-09-06 19:14:00,
2013-09-06 14:19:00,88.5,66.9,29.74,SW,215,0.0,7.0,49,0.00,,SKC,0.00,VWS V14.01,2013-09-06 19:19:00,
2013-09-06 14:24:00,88.5,68.1,29.74,SW,234,0.0,7.0,51,0.00,,SKC,0.00,VWS V14.01,2013-09-06 19:24:00,
2013-09-06 14:29:00,88.7,67.1,29.74,SW,221,5.0,9.0,49,0.00,,SKC,0.00,VWS V14.01,2013-09-06 19:29:00,
2013-09-06 14:30:00,86.6,67.4,29.77,SW,231,1.0,13.0,53,0.00,,SKC,0.00,VWS V14.01,2013-09-06 19:30:00,
2013-09-06 14:34:00,88.6,67.0,29.74,WSW,244,7.0,8.0,49,0.00,,SKC,0.00,VWS V14.01,2013-09-06 19:34:00,
2013-09-06 14:39:00,88.4,66.8,29.74,SSW,209,1.0,9.0,49,0.00,,SKC,0.00,VWS V14.01,2013-09-06 19:39:00,
2013-09-06 14:44:00,88.3,67.9,29.74,SW,223,0.0,9.0,51,0.00,,SKC,0.00,VWS V14.01,2013-09-06 19:44:00,
2013-09-06 14:49:00,88.2,67.2,29.74,SW,233,6.0,9.0,50,0.00,,SKC,0.00,VWS V14.01,2013-09-06 19:49:00,
2013-09-06 14:54:00,88.0,68.2,29.74,SW,221,0.0,9.0,52,0.00,,SKC,0.00,VWS V14.01,2013-09-06 19:54:00,
2013-09-06 14:59:00,87.4,67.6,29.74,SSW,201,4.0,9.0,52,0.00,,SKC,0.00,VWS V14.01,2013-09-06 19:59:00,
2013-09-06 15:00:00,87.5,67.7,29.75,SW,219,5.0,8.0,52,0.00,,SKC,0.00,VWS V14.01,2013-09-06 20:00:00,
2013-09-06 15:04:00,87.1,67.4,29.74,SSW,205,2.0,7.0,52,0.00,,SKC,0.00,VWS V14.01,2013-09-06 20:04:00,
2013-09-06 15:09:00,86.8,67.1,29.74,SSW,208,2.0,8.0,52,0.00,,SKC,0.00,VWS V14.01,2013-09-06 20:09:00,
2013-09-06 15:14:00,86.9,67.7,29.73,SSE,164,3.0,8.0,53,0.00,,SKC,0.00,VWS V14.01,2013-09-06 20:14:00,
2013-09-06 15:19:00,87.3,68.1,29.73,SW,225,2.0,8.0,53,0.00,,SKC,0.00,VWS V14.01,2013-09-06 20:19:00,
2013-09-06 15:24:00,87.7,67.3,29.73,SSW,211,0.0,8.0,51,0.00,,SKC,0.00,VWS V14.01,2013-09-06 20:24:00,
2013-09-06 15:29:00,87.8,68.0,29.73,SW,215,0.0,8.0,52,0.00,,SKC,0.00,VWS V14.01,2013-09-06 20:29:00,
2013-09-06 15:30:00,88.7,67.1,29.74,SSW,208,4.0,9.0,49,0.00,,SKC,0.00,VWS V14.01,2013-09-06 20:30:00,
2013-09-06 15:34:00,87.6,67.2,29.73,SW,216,4.0,6.0,51,0.00,,SKC,0.00,VWS V14.01,2013-09-06 20:34:00,
2013-09-06 15:39:00,87.1,67.4,29.72,SW,224,1.0,7.0,52,0.00,,SKC,0.00,VWS V14.01,2013-09-06 20:39:00,
2013-09-06 15:44:00,86.8,67.6,29.72,WSW,238,2.0,7.0,53,0.00,,SKC,0.00,VWS V14.01,2013-09-06 20:44:00,
2013-09-06 15:49:00,86.6,67.4,29.72,SSW,211,0.0,7.0,53,0.00,,SKC,0.00,VWS V14.01,2013-09-06 20:49:00,
2013-09-06 15:54:00,86.5,67.9,29.72,SW,219,6.0,9.0,54,0.00,,SKC,0.00,VWS V14.01,2013-09-06 20:54:00,
2013-09-06 15:59:00,86.4,67.8,29.72,SSW,208,4.0,9.0,54,0.00,,SKC,0.00,VWS V14.01,2013-09-06 20:59:00,
2013-09-06 16:00:00,87.2,67.4,29.74,SSW,201,2.0,9.0,52,0.00,,SKC,0.00,VWS V14.01,2013-09-06 21:00:00,
2013-09-06 16:05:00,86.4,67.8,29.72,SSW,209,0.0,5.0,54,0.00,,SKC,0.00,VWS V14.01,2013-09-06 21:05:00,
2013-09-06 16:10:00,86.6,68.0,29.71,SSW,207,2.0,5.0,54,0.00,,SKC,0.00,VWS V14.01,2013-09-06 21:10:00,
2013-09-06 16:15:00,87.1,67.9,29.71,SW,219,4.0,9.0,53,0.00,,SKC,0.00,VWS V14.01,2013-09-06 21:15:00,
2013-09-06 16:20:00,87.1,67.4,29.70,SW,235,5.0,9.0,52,0.00,,SKC,0.00,VWS V14.01,2013-09-06 21:20:00,
2013-09-06 16:25:00,87.1,67.9,29.70,SW,229,0.0,9.0,53,0.00,,SKC,0.00,VWS V14.01,2013-09-06 21:25:00,
2013-09-06 16:30:00,87.1,68.4,29.70,SW,229,0.0,9.0,54,0.00,,SKC,0.00,VWS V14.01,2013-09-06 21:30:00,
2013-09-06 16:35:00,87.0,68.9,29.70,SW,221,0.0,4.0,55,0.00,,SKC,0.00,VWS V14.01,2013-09-06 21:35:00,
2013-09-06 16:40:00,87.1,68.4,29.71,SW,221,0.0,4.0,54,0.00,,SKC,0.00,VWS V14.01,2013-09-06 21:40:00,
2013-09-06 16:45:00,87.0,68.4,29.71,SW,222,0.0,4.0,54,0.00,,SKC,0.00,VWS V14.01,2013-09-06 21:45:00,
2013-09-06 16:50:00,86.6,68.0,29.71,SW,219,2.0,5.0,54,0.00,,SKC,0.00,VWS V14.01,2013-09-06 21:50:00,
2013-09-06 16:55:00,86.5,68.4,29.70,SW,219,1.0,5.0,55,0.00,,SKC,0.00,VWS V14.01,2013-09-06 21:55:00,
2013-09-06 17:00:00,86.4,68.9,29.70,SW,219,0.0,5.0,56,0.00,,SKC,0.00,VWS V14.01,2013-09-06 22:00:00,
2013-09-06 17:05:00,86.4,69.4,29.70,SW,216,2.0,2.0,57,0.00,,SKC,0.00,VWS V14.01,2013-09-06 22:05:00,
2013-09-06 17:10:00,86.2,68.2,29.70,SW,214,0.0,4.0,55,0.00,,SKC,0.00,VWS V14.01,2013-09-06 22:10:00,
2013-09-06 17:15:00,86.2,69.2,29.70,SW,214,0.0,4.0,57,0.00,,SKC,0.00,VWS V14.01,2013-09-06 22:15:00,
2013-09-06 17:20:00,86.1,69.1,29.70,SW,214,0.0,4.0,57,0.00,,SKC,0.00,VWS V14.01,2013-09-06 22:20:00,
2013-09-06 17:25:00,85.9,69.4,29.70,SW,214,0.0,4.0,58,0.00,,SKC,0.00,VWS V14.01,2013-09-06 22:25:00,
2013-09-06 17:30:00,85.8,69.8,29.70,SW,214,0.0,4.0,59,0.00,,SKC,0.00,VWS V14.01,2013-09-06 22:30:00,
2013-09-06 17:35:00,85.8,70.3,29.70,SW,214,0.0,0.0,60,0.00,,SKC,0.00,VWS V14.01,2013-09-06 22:35:00,
2013-09-06 17:40:00,85.6,70.1,29.70,SW,214,0.0,1.0,60,0.00,,SKC,0.00,VWS V14.01,2013-09-06 22:40:00,
2013-09-06 17:45:00,85.8,69.8,29.70,SW,214,0.0,2.0,59,0.00,,SKC,0.00,VWS V14.01,2013-09-06 22:45:00,
2013-09-06 17:50:00,85.9,69.4,29.70,SW,214,0.0,2.0,58,0.00,,SKC,0.00,VWS V14.01,2013-09-06 22:50:00,
2013-09-06 17:55:00,86.1,69.6,29.70,SW,214,0.0,2.0,58,0.00,,SKC,0.00,VWS V14.01,2013-09-06 22:55:00,
2013-09-06 18:00:00,86.1,70.1,29.70,SW,219,4.0,5.0,59,0.00,,SKC,0.00,VWS V14.01,2013-09-06 23:00:00,
2013-09-06 18:05:00,85.9,69.4,29.70,SW,219,2.0,2.0,58,0.00,,SKC,0.00,VWS V14.01,2013-09-06 23:05:00,
2013-09-06 18:10:00,85.8,70.3,29.69,SW,219,0.0,2.0,60,0.00,,SKC,0.00,VWS V14.01,2013-09-06 23:10:00,
2013-09-06 18:15:00,85.7,70.7,29.70,SW,219,0.0,2.0,61,0.00,,SKC,0.00,VWS V14.01,2013-09-06 23:15:00,
2013-09-06 18:20:00,85.4,70.9,29.70,SW,219,0.0,2.0,62,0.00,,SKC,0.00,VWS V14.01,2013-09-06 23:20:00,
2013-09-06 18:26:00,84.8,71.3,29.70,SW,219,0.0,2.0,64,0.00,,SKC,0.00,VWS V14.01,2013-09-06 23:26:00,
2013-09-06 18:30:00,85.8,69.8,29.70,SW,214,0.0,4.0,59,0.00,,SKC,0.00,VWS V14.01,2013-09-06 23:30:00,
2013-09-06 18:31:00,84.3,71.3,29.70,SW,219,0.0,2.0,65,0.00,,SKC,0.00,VWS V14.01,2013-09-06 23:31:00,
2013-09-06 18:36:00,83.9,70.4,29.70,SW,219,0.0,0.0,64,0.00,,SKC,0.00,VWS V14.01,2013-09-06 23:36:00,
2013-09-06 18:41:00,84.0,69.6,29.69,SW,219,0.0,2.0,62,0.00,,SKC,0.00,VWS V14.01,2013-09-06 23:41:00,
2013-09-06 18:46:00,84.2,70.2,29.70,SW,219,0.0,2.0,63,0.00,,SKC,0.00,VWS V14.01,2013-09-06 23:46:00,
2013-09-06 18:51:00,84.2,70.2,29.69,SW,219,0.0,2.0,63,0.00,,SKC,0.00,VWS V14.01,2013-09-06 23:51:00,
2013-09-06 18:56:00,84.1,70.6,29.70,SW,219,0.0,2.0,64,0.00,,SKC,0.00,VWS V14.01,2013-09-06 23:56:00,
2013-09-06 19:00:00,86.1,70.1,29.70,SW,219,0.0,5.0,59,0.00,,SKC,0.00,VWS V14.01,2013-09-07 00:00:00,
2013-09-06 19:01:00,84.0,70.1,29.69,SW,215,2.0,2.0,63,0.00,,SKC,0.00,VWS V14.01,2013-09-07 00:01:00,
2013-09-06 19:06:00,84.0,70.1,29.69,SSW,213,0.0,2.0,63,0.00,,SKC,0.00,VWS V14.01,2013-09-07 00:06:00,
2013-09-06 19:11:00,84.0,70.1,29.69,SSW,210,0.0,5.0,63,0.00,,SKC,0.00,VWS V14.01,2013-09-07 00:11:00,
2013-09-06 19:16:00,83.9,70.4,29.69,SSW,209,0.0,5.0,64,0.00,,SKC,0.00,VWS V14.01,2013-09-07 00:16:00,
2013-09-06 19:21:00,83.7,70.7,29.69,SSW,209,0.0,5.0,65,0.00,,SKC,0.00,VWS V14.01,2013-09-07 00:21:00,
2013-09-06 19:26:00,83.5,70.9,29.69,SSW,209,0.0,5.0,66,0.00,,SKC,0.00,VWS V14.01,2013-09-07 00:26:00,
2013-09-06 19:30:00,84.3,71.3,29.70,SW,219,0.0,2.0,65,0.00,,SKC,0.00,VWS V14.01,2013-09-07 00:30:00,
2013-09-06 19:31:00,83.1,71.0,29.69,SSW,209,0.0,0.0,67,0.00,,SKC,0.00,VWS V14.01,2013-09-07 00:31:00,
2013-09-06 19:36:00,82.8,71.2,29.69,SSW,209,0.0,0.0,68,0.00,,SKC,0.00,VWS V14.01,2013-09-07 00:36:00,
2013-09-06 19:41:00,82.4,70.8,29.69,SSW,209,0.0,0.0,68,0.00,,SKC,0.00,VWS V14.01,2013-09-07 00:41:00,
2013-09-06 19:46:00,82.1,70.5,29.69,SSW,209,0.0,0.0,68,0.00,,SKC,0.00,VWS V14.01,2013-09-07 00:46:00,
2013-09-06 19:51:00,81.8,71.1,29.69,SSW,209,0.0,0.0,70,0.00,,SKC,0.00,VWS V14.01,2013-09-07 00:51:00,
2013-09-06 19:56:00,81.4,71.1,29.69,SSW,209,0.0,0.0,71,0.00,,SKC,0.00,VWS V14.01,2013-09-07 00:56:00,
2013-09-06 20:00:00,84.0,70.1,29.70,SW,215,2.0,5.0,63,0.00,,SKC,0.00,VWS V14.01,2013-09-07 01:00:00,
2013-09-06 20:01:00,81.2,70.9,29.69,SSW,209,0.0,0.0,71,0.00,,SKC,0.00,VWS V14.01,2013-09-07 01:01:00,
2013-09-06 20:06:00,80.9,70.6,29.69,SSW,209,0.0,0.0,71,0.00,,SKC,0.00,VWS V14.01,2013-09-07 01:06:00,
2013-09-06 20:11:00,80.7,70.4,29.69,SSW,209,0.0,0.0,71,0.00,,SKC,0.00,VWS V14.01,2013-09-07 01:11:00,
2013-09-06 20:17:00,80.5,70.7,29.69,SSW,209,0.0,0.0,72,0.00,,SKC,0.00,VWS V14.01,2013-09-07 01:17:00,
2013-09-06 20:22:00,80.3,70.5,29.69,SSW,209,0.0,0.0,72,0.00,,SKC,0.00,VWS V14.01,2013-09-07 01:22:00,
2013-09-06 20:27:00,80.0,70.6,29.69,SSW,209,0.0,0.0,73,0.00,,SKC,0.00,VWS V14.01,2013-09-07 01:27:00,
2013-09-06 20:30:00,83.2,71.1,29.69,SSW,209,0.0,5.0,67,0.00,,SKC,0.00,VWS V14.01,2013-09-07 01:30:00,
2013-09-06 20:32:00,79.6,71.0,29.69,SSW,209,0.0,0.0,75,0.00,,SKC,0.00,VWS V14.01,2013-09-07 01:32:00,
2013-09-06 20:37:00,79.3,70.3,29.69,SSW,209,0.0,0.0,74,0.00,,SKC,0.00,VWS V14.01,2013-09-07 01:37:00,
2013-09-06 20:42:00,79.2,70.6,29.69,SSW,209,0.0,0.0,75,0.00,,SKC,0.00,VWS V14.01,2013-09-07 01:42:00,
2013-09-06 20:47:00,79.1,70.5,29.69,SSW,209,0.0,0.0,75,0.00,,SKC,0.00,VWS V14.01,2013-09-07 01:47:00,
2013-09-06 20:52:00,79.1,70.5,29.69,SSW,209,0.0,0.0,75,0.00,,SKC,0.00,VWS V14.01,2013-09-07 01:52:00,
2013-09-06 20:57:00,79.0,70.4,29.69,SSW,209,0.0,0.0,75,0.00,,SKC,0.00,VWS V14.01,2013-09-07 01:57:00,
2013-09-06 21:00:00,81.2,70.9,29.69,SSW,209,0.0,0.0,71,0.00,,SKC,0.00,VWS V14.01,2013-09-07 02:00:00,
2013-09-06 21:02:00,78.8,70.6,29.70,SSW,209,0.0,0.0,76,0.00,,SKC,0.00,VWS V14.01,2013-09-07 02:02:00,
2013-09-06 21:07:00,78.7,70.5,29.70,SSW,209,0.0,0.0,76,0.00,,SKC,0.00,VWS V14.01,2013-09-07 02:07:00,
2013-09-06 21:12:00,78.7,70.5,29.70,SSW,209,0.0,0.0,76,0.00,,SKC,0.00,VWS V14.01,2013-09-07 02:12:00,
2013-09-06 21:17:00,78.6,70.0,29.69,SSW,209,0.0,0.0,75,0.00,,SKC,0.00,VWS V14.01,2013-09-07 02:17:00,
2013-09-06 21:22:00,78.5,69.9,29.70,SSW,209,0.0,0.0,75,0.00,,SKC,0.00,VWS V14.01,2013-09-07 02:22:00,
2013-09-06 21:27:00,78.4,69.8,29.69,SSW,209,0.0,0.0,75,0.00,,SKC,0.00,VWS V14.01,2013-09-07 02:27:00,
2013-09-06 21:30:00,79.7,71.5,29.69,SSW,209,0.0,0.0,76,0.00,,SKC,0.00,VWS V14.01,2013-09-07 02:30:00,
2013-09-06 21:32:00,78.3,69.7,29.69,SSW,209,0.0,0.0,75,0.00,,SKC,0.00,VWS V14.01,2013-09-07 02:32:00,
2013-09-06 21:37:00,78.2,69.6,29.69,SSW,209,0.0,0.0,75,0.00,,SKC,0.00,VWS V14.01,2013-09-07 02:37:00,
2013-09-06 21:42:00,78.1,69.5,29.69,SSW,209,0.0,0.0,75,0.00,,SKC,0.00,VWS V14.01,2013-09-07 02:42:00,
2013-09-06 21:47:00,78.0,69.4,29.69,SSW,209,0.0,0.0,75,0.00,,SKC,0.00,VWS V14.01,2013-09-07 02:47:00,
2013-09-06 21:53:00,77.9,69.7,29.69,SSW,209,0.0,0.0,76,0.00,,SKC,0.00,VWS V14.01,2013-09-07 02:53:00,
2013-09-06 21:58:00,77.7,69.5,29.69,SSW,209,0.0,0.0,76,0.00,,SKC,0.00,VWS V14.01,2013-09-07 02:58:00,
2013-09-06 22:00:00,78.8,70.6,29.70,SSW,209,0.0,0.0,76,0.00,,SKC,0.00,VWS V14.01,2013-09-07 03:00:00,
2013-09-06 22:03:00,77.6,69.4,29.69,SSW,209,0.0,0.0,76,0.00,,SKC,0.00,VWS V14.01,2013-09-07 03:03:00,
2013-09-06 22:08:00,77.5,69.3,29.69,SSW,209,0.0,0.0,76,0.00,,SKC,0.00,VWS V14.01,2013-09-07 03:08:00,
2013-09-06 22:13:00,77.6,69.4,29.69,SSW,209,0.0,0.0,76,0.00,,SKC,0.00,VWS V14.01,2013-09-07 03:13:00,
2013-09-06 22:18:00,77.6,69.8,29.69,SSW,209,0.0,0.0,77,0.00,,SKC,0.00,VWS V14.01,2013-09-07 03:18:00,
2013-09-06 22:23:00,77.6,69.8,29.69,SSW,209,0.0,0.0,77,0.00,,SKC,0.00,VWS V14.01,2013-09-07 03:23:00,
2013-09-06 22:28:00,77.5,70.1,29.69,SSW,209,0.0,0.0,78,0.00,,SKC,0.00,VWS V14.01,2013-09-07 03:28:00,
2013-09-06 22:30:00,78.4,69.8,29.69,SSW,209,0.0,0.0,75,0.00,,SKC,0.00,VWS V14.01,2013-09-07 03:30:00,
2013-09-06 22:33:00,77.4,70.0,29.69,SSW,209,0.0,0.0,78,0.00,,SKC,0.00,VWS V14.01,2013-09-07 03:33:00,
2013-09-06 22:38:00,77.3,69.9,29.69,SSW,209,0.0,0.0,78,0.00,,SKC,0.00,VWS V14.01,2013-09-07 03:38:00,
2013-09-06 22:43:00,77.2,69.8,29.69,SSW,209,0.0,0.0,78,0.00,,SKC,0.00,VWS V14.01,2013-09-07 03:43:00,
2013-09-06 22:48:00,77.1,69.7,29.69,SSW,209,0.0,0.0,78,0.00,,SKC,0.00,VWS V14.01,2013-09-07 03:48:00,
2013-09-06 22:53:00,77.1,69.7,29.69,SSW,209,0.0,0.0,78,0.00,,SKC,0.00,VWS V14.01,2013-09-07 03:53:00,
2013-09-06 22:58:00,77.0,69.6,29.69,SSW,209,0.0,0.0,78,0.00,,SKC,0.00,VWS V14.01,2013-09-07 03:58:00,
2013-09-06 23:00:00,77.6,69.4,29.69,SSW,209,0.0,0.0,76,0.00,,SKC,0.00,VWS V14.01,2013-09-07 04:00:00,
2013-09-06 23:01:00,77.0,69.6,29.69,SSW,209,0.0,0.0,78,0.00,,SKC,0.00,VWS V14.01,2013-09-07 04:01:00,
2013-09-06 23:02:00,77.0,69.6,29.68,SSW,209,0.0,0.0,78,0.00,,SKC,0.00,VWS V14.01,2013-09-07 04:02:00,
2013-09-06 23:05:00,77.0,69.6,29.68,SSW,209,0.0,0.0,78,0.00,,SKC,0.00,VWS V14.01,2013-09-07 04:05:00,
2013-09-06 23:10:00,77.0,69.6,29.68,SSW,209,0.0,0.0,78,0.00,,SKC,0.00,VWS V14.01,2013-09-07 04:10:00,
2013-09-06 23:15:00,76.9,69.5,29.68,SSW,209,0.0,0.0,78,0.00,,SKC,0.00,VWS V14.01,2013-09-07 04:15:00,
2013-09-06 23:20:00,76.9,69.5,29.68,SSW,209,0.0,0.0,78,0.00,,SKC,0.00,VWS V14.01,2013-09-07 04:20:00,
2013-09-06 23:26:00,76.9,69.5,29.68,SSW,209,0.0,0.0,78,0.00,,SKC,0.00,VWS V14.01,2013-09-07 04:26:00,
2013-09-06 23:30:00,77.4,70.0,29.69,SSW,209,0.0,0.0,78,0.00,,SKC,0.00,VWS V14.01,2013-09-07 04:30:00,
2013-09-06 23:31:00,76.8,69.4,29.68,SSW,209,0.0,0.0,78,0.00,,SKC,0.00,VWS V14.01,2013-09-07 04:31:00,
2013-09-06 23:32:00,76.8,69.4,29.68,SSW,209,0.0,0.0,78,0.00,,SKC,0.00,VWS V14.01,2013-09-07 04:32:00,
2013-09-06 23:37:00,76.7,68.9,29.68,SSW,209,0.0,0.0,77,0.00,,SKC,0.00,VWS V14.01,2013-09-07 04:37:00,
2013-09-06 23:42:00,76.6,68.9,29.68,SSW,209,0.0,0.0,77,0.00,,SKC,0.00,VWS V14.01,2013-09-07 04:42:00,
2013-09-06 23:47:00,76.6,68.9,29.68,SSW,209,0.0,1.0,77,0.00,,SKC,0.00,VWS V14.01,2013-09-07 04:47:00,
2013-09-06 23:52:00,76.6,69.2,29.68,SSW,209,0.0,1.0,78,0.00,,SKC,0.00,VWS V14.01,2013-09-07 04:52:00,
2013-09-06 23:57:00,76.6,69.2,29.68,SSW,209,0.0,1.0,78,0.00,,SKC,0.00,VWS V14.01,2013-09-07 04:57:00,